DLH29E EDDB-EDDH

Flight info

Callsign DLH29E
Flight time 0h 35m
Altitude 24000
Route SUKIP3Z SUKIP M748 RARUP RARUP6A
Aircraft A319/M-SDE3FGHIRWY/LB1

Departure

Time 2026-05-06 09:26
Airport Berlin Brandenburg Airport (EDDB)

Arrival

Time 2026-05-06 10:02
Airport Hamburg Helmut Schmidt Airport (EDDH)
Time Latitude Longitude Altitude Speed Heading
2026-05-06 08:52 52.36505 13.50520 155 ft 0 kts 69°
2026-05-06 09:12 52.36505 13.50519 155 ft 2 kts 69°
2026-05-06 09:12 52.36496 13.50481 155 ft 4 kts 69°
2026-05-06 09:13 52.36487 13.50446 155 ft 2 kts 69°
2026-05-06 09:13 52.36476 13.50410 155 ft 4 kts 42°
2026-05-06 09:13 52.36455 13.50395 155 ft 4 kts 346°
2026-05-06 09:13 52.36449 13.50397 155 ft 0 kts 339°
2026-05-06 09:19 52.36464 13.50382 155 ft 5 kts 321°
2026-05-06 09:20 52.36483 13.50313 155 ft 9 kts 289°
2026-05-06 09:20 52.36545 13.50257 155 ft 13 kts 338°
2026-05-06 09:20 52.36636 13.50198 155 ft 15 kts 339°
2026-05-06 09:20 52.36717 13.50114 155 ft 13 kts 301°
2026-05-06 09:21 52.36772 13.50036 155 ft 9 kts 339°
2026-05-06 09:21 52.36822 13.50004 155 ft 7 kts 339°
2026-05-06 09:21 52.36870 13.49942 155 ft 14 kts 285°
2026-05-06 09:21 52.36833 13.49764 155 ft 18 kts 250°
2026-05-06 09:22 52.36786 13.49567 156 ft 19 kts 248°
2026-05-06 09:22 52.36740 13.49375 155 ft 16 kts 249°
2026-05-06 09:22 52.36701 13.49214 155 ft 15 kts 248°
2026-05-06 09:22 52.36663 13.49052 155 ft 16 kts 249°
2026-05-06 09:23 52.36626 13.48893 155 ft 14 kts 249°
2026-05-06 09:23 52.36593 13.48754 155 ft 14 kts 249°
2026-05-06 09:23 52.36551 13.48577 155 ft 19 kts 249°
2026-05-06 09:23 52.36521 13.48451 154 ft 12 kts 248°
2026-05-06 09:24 52.36541 13.48357 155 ft 7 kts 333°
2026-05-06 09:24 52.36551 13.48350 155 ft 0 kts 337°
2026-05-06 09:25 52.36560 13.48344 155 ft 5 kts 337°
2026-05-06 09:25 52.36620 13.48306 155 ft 13 kts 339°
2026-05-06 09:25 52.36711 13.48263 155 ft 12 kts 15°
2026-05-06 09:26 52.36740 13.48380 155 ft 30 kts 68°
2026-05-06 09:26 52.36917 13.49122 156 ft 106 kts 69°
2026-05-06 09:26 52.37259 13.50562 220 ft 157 kts 66°
2026-05-06 09:26 52.37643 13.52206 986 ft 154 kts 65°
2026-05-06 09:27 52.38046 13.53857 1682 ft 164 kts 65°
2026-05-06 09:27 52.38509 13.55694 2147 ft 185 kts 66°
2026-05-06 09:27 52.39015 13.57748 2608 ft 205 kts 68°
2026-05-06 09:27 52.39562 13.60039 3013 ft 228 kts 68°
2026-05-06 09:28 52.40416 13.62408 3359 ft 257 kts 42°
2026-05-06 09:28 52.42041 13.63800 3971 ft 274 kts 11°
2026-05-06 09:28 52.43874 13.64390 5096 ft 273 kts 12°
2026-05-06 09:28 52.45730 13.65067 6104 ft 275 kts 359°
2026-05-06 09:29 52.47591 13.64453 6994 ft 277 kts 334°
2026-05-06 09:29 52.49123 13.62546 7897 ft 280 kts 308°
2026-05-06 09:29 52.50048 13.59755 8820 ft 281 kts 283°
2026-05-06 09:29 52.50435 13.56610 9803 ft 282 kts 277°
2026-05-06 09:30 52.50793 13.53393 10631 ft 289 kts 279°
2026-05-06 09:30 52.51157 13.50152 11595 ft 290 kts 279°
2026-05-06 09:30 52.51672 13.46932 12513 ft 294 kts 288°
2026-05-06 09:30 52.52491 13.43794 13113 ft 311 kts 293°
2026-05-06 09:31 52.53454 13.40451 13402 ft 335 kts 293°
2026-05-06 09:31 52.54486 13.36882 13687 ft 356 kts 293°
2026-05-06 09:31 52.55563 13.33165 14283 ft 363 kts 293°
2026-05-06 09:31 52.56652 13.29397 14982 ft 367 kts 293°
2026-05-06 09:32 52.57751 13.25590 15680 ft 370 kts 292°
2026-05-06 09:32 52.58859 13.21744 16385 ft 373 kts 292°
2026-05-06 09:32 52.59972 13.17870 17074 ft 376 kts 292°
2026-05-06 09:32 52.61090 13.13974 17758 ft 379 kts 292°
2026-05-06 09:33 52.62218 13.10029 18393 ft 382 kts 292°
2026-05-06 09:33 52.63351 13.06048 18960 ft 386 kts 292°
2026-05-06 09:33 52.64494 13.02017 19521 ft 390 kts 292°
2026-05-06 09:33 52.65647 12.97944 20067 ft 394 kts 292°
2026-05-06 09:34 52.66810 12.93832 20602 ft 398 kts 292°
2026-05-06 09:34 52.67982 12.89676 21176 ft 402 kts 292°
2026-05-06 09:34 52.69163 12.85481 21737 ft 406 kts 293°
2026-05-06 09:34 52.70359 12.81233 22315 ft 410 kts 293°
2026-05-06 09:35 52.71564 12.76954 22857 ft 414 kts 293°
2026-05-06 09:35 52.72779 12.72626 23356 ft 417 kts 293°
2026-05-06 09:35 52.73998 12.68260 23689 ft 421 kts 293°
2026-05-06 09:35 52.75225 12.63862 23784 ft 426 kts 293°
2026-05-06 09:36 52.76484 12.59355 23792 ft 437 kts 293°
2026-05-06 09:36 52.77746 12.54837 23803 ft 441 kts 293°
2026-05-06 09:36 52.79031 12.50229 23801 ft 442 kts 293°
2026-05-06 09:36 52.80314 12.45613 23803 ft 442 kts 293°
2026-05-06 09:37 52.81594 12.40995 23804 ft 442 kts 293°
2026-05-06 09:37 52.82873 12.36376 23814 ft 442 kts 293°
2026-05-06 09:37 52.84148 12.31760 23813 ft 442 kts 293°
2026-05-06 09:37 52.85422 12.27132 23813 ft 442 kts 293°
2026-05-06 09:38 52.86692 12.22511 23807 ft 442 kts 293°
2026-05-06 09:38 52.87959 12.17876 23814 ft 441 kts 293°
2026-05-06 09:38 52.89221 12.13249 23812 ft 441 kts 293°
2026-05-06 09:38 52.90485 12.08618 23807 ft 441 kts 293°
2026-05-06 09:39 52.91748 12.03989 23804 ft 441 kts 293°
2026-05-06 09:39 52.93003 11.99379 23807 ft 441 kts 293°
2026-05-06 09:39 52.94266 11.94725 23807 ft 441 kts 293°
2026-05-06 09:39 52.95524 11.90085 23809 ft 441 kts 293°
2026-05-06 09:40 52.96776 11.85460 23811 ft 441 kts 292°
2026-05-06 09:40 52.98028 11.80819 23808 ft 441 kts 292°
2026-05-06 09:40 53.00559 11.71390 23361 ft 449 kts 292°
2026-05-06 09:41 53.01827 11.66648 23093 ft 450 kts 292°
2026-05-06 09:41 53.03093 11.61908 22820 ft 449 kts 292°
2026-05-06 09:41 53.04354 11.57182 22543 ft 447 kts 292°
2026-05-06 09:41 53.05611 11.52466 22279 ft 445 kts 292°
2026-05-06 09:42 53.06854 11.47765 22003 ft 443 kts 291°
2026-05-06 09:42 53.07816 11.42925 21741 ft 440 kts 285°
2026-05-06 09:42 53.08692 11.38054 21469 ft 438 kts 285°
2026-05-06 09:42 53.09554 11.33194 21218 ft 437 kts 285°
2026-05-06 09:43 53.10406 11.28354 20972 ft 435 kts 284°
2026-05-06 09:43 53.11248 11.23534 20705 ft 434 kts 284°
2026-05-06 09:43 53.12090 11.18714 20454 ft 434 kts 284°
2026-05-06 09:43 53.12932 11.13900 19942 ft 429 kts 284°
2026-05-06 09:44 53.13763 11.09159 19215 ft 424 kts 284°
2026-05-06 09:44 53.14583 11.04469 18545 ft 420 kts 284°
2026-05-06 09:44 53.15383 10.99884 17841 ft 416 kts 284°
2026-05-06 09:44 53.16182 10.95274 17198 ft 411 kts 284°
2026-05-06 09:45 53.16970 10.90720 16603 ft 406 kts 284°
2026-05-06 09:45 53.17743 10.86220 16018 ft 403 kts 284°
2026-05-06 09:45 53.18510 10.81747 15455 ft 399 kts 284°
2026-05-06 09:45 53.19269 10.77324 14933 ft 395 kts 284°
2026-05-06 09:46 53.20007 10.73009 14783 ft 379 kts 284°
2026-05-06 09:46 53.20716 10.68874 14654 ft 361 kts 284°
2026-05-06 09:46 53.21386 10.64953 14533 ft 343 kts 284°
2026-05-06 09:46 53.22024 10.61216 14406 ft 327 kts 283°
2026-05-06 09:47 53.22637 10.57636 14143 ft 317 kts 283°
2026-05-06 09:47 53.23245 10.54124 13731 ft 314 kts 284°
2026-05-06 09:47 53.23831 10.50638 13174 ft 310 kts 284°
2026-05-06 09:47 53.24392 10.47185 12563 ft 307 kts 283°
2026-05-06 09:48 53.24953 10.43744 11905 ft 307 kts 283°
2026-05-06 09:48 53.25503 10.40312 11314 ft 305 kts 284°
2026-05-06 09:48 53.26030 10.36898 10950 ft 302 kts 283°
2026-05-06 09:48 53.26551 10.33509 10435 ft 302 kts 283°
2026-05-06 09:49 53.27069 10.30126 9983 ft 299 kts 283°
2026-05-06 09:49 53.27578 10.26752 9489 ft 300 kts 284°
2026-05-06 09:49 53.28066 10.23375 9113 ft 298 kts 283°
2026-05-06 09:49 53.28538 10.20031 8886 ft 292 kts 283°
2026-05-06 09:50 53.28990 10.16774 8748 ft 284 kts 283°
2026-05-06 09:50 53.29438 10.13601 8622 ft 276 kts 284°
2026-05-06 09:50 53.29868 10.10515 8487 ft 269 kts 283°
2026-05-06 09:50 53.30282 10.07502 8329 ft 264 kts 283°
2026-05-06 09:51 53.30690 10.04525 8125 ft 262 kts 283°
2026-05-06 09:51 53.31095 10.01560 7836 ft 262 kts 283°
2026-05-06 09:51 53.31495 9.98594 7534 ft 261 kts 283°
2026-05-06 09:51 53.31906 9.95647 7265 ft 260 kts 283°
2026-05-06 09:52 53.32307 9.92747 7095 ft 258 kts 283°
2026-05-06 09:52 53.32699 9.89825 6843 ft 257 kts 283°
2026-05-06 09:52 53.33087 9.86922 6541 ft 255 kts 283°
2026-05-06 09:52 53.33479 9.83983 6226 ft 255 kts 283°
2026-05-06 09:53 53.33863 9.81089 5890 ft 255 kts 283°
2026-05-06 09:53 53.34242 9.78241 5645 ft 253 kts 284°
2026-05-06 09:53 53.34958 9.75609 5439 ft 247 kts 309°
2026-05-06 09:53 53.36057 9.73365 5211 ft 245 kts 314°
2026-05-06 09:54 53.37157 9.71247 4931 ft 244 kts 314°
2026-05-06 09:54 53.38272 9.69107 4697 ft 243 kts 314°
2026-05-06 09:54 53.39379 9.66986 4419 ft 242 kts 314°
2026-05-06 09:54 53.40511 9.64908 4155 ft 241 kts 317°
2026-05-06 09:55 53.41626 9.62815 3883 ft 240 kts 315°
2026-05-06 09:55 53.42855 9.60993 3505 ft 231 kts 340°
2026-05-06 09:55 53.44351 9.60706 3201 ft 212 kts 22°
2026-05-06 09:55 53.45411 9.62157 3033 ft 197 kts 65°
2026-05-06 09:56 53.45863 9.64338 3022 ft 199 kts 68°
2026-05-06 09:56 53.46732 9.66166 3031 ft 203 kts 47°
2026-05-06 09:56 53.47668 9.67920 3030 ft 201 kts 52°
2026-05-06 09:56 53.48565 9.69721 3034 ft 201 kts 52°
2026-05-06 09:57 53.49460 9.71515 3030 ft 195 kts 52°
2026-05-06 09:57 53.50291 9.73177 3030 ft 178 kts 52°
2026-05-06 09:57 53.51050 9.74696 3026 ft 161 kts 52°
2026-05-06 09:57 53.51748 9.76093 3033 ft 154 kts 52°
2026-05-06 09:58 53.52428 9.77460 2978 ft 152 kts 52°
2026-05-06 09:58 53.53112 9.78832 2874 ft 152 kts 53°
2026-05-06 09:58 53.53799 9.80211 2645 ft 155 kts 53°
2026-05-06 09:58 53.54495 9.81608 2438 ft 157 kts 53°
2026-05-06 09:59 53.55174 9.82972 2226 ft 150 kts 52°
2026-05-06 09:59 53.55823 9.84275 2027 ft 141 kts 52°
2026-05-06 09:59 53.56441 9.85518 1838 ft 137 kts 52°
2026-05-06 09:59 53.57043 9.86728 1655 ft 134 kts 51°
2026-05-06 10:00 53.57641 9.87933 1459 ft 134 kts 51°
2026-05-06 10:00 53.58237 9.89133 1277 ft 133 kts 51°
2026-05-06 10:00 53.58828 9.90325 1054 ft 134 kts 50°
2026-05-06 10:00 53.59424 9.91525 853 ft 133 kts 49°
2026-05-06 10:01 53.60014 9.92713 696 ft 131 kts 49°
2026-05-06 10:01 53.60608 9.93895 519 ft 132 kts 49°
2026-05-06 10:01 53.61205 9.95105 327 ft 133 kts 49°
2026-05-06 10:01 53.61792 9.96300 148 ft 133 kts 49°
2026-05-06 10:02 53.62371 9.97475 52 ft 121 kts 48°
2026-05-06 10:02 53.62843 9.98430 44 ft 85 kts 50°
2026-05-06 10:02 53.63113 9.98976 46 ft 40 kts 50°
2026-05-06 10:02 53.63266 9.99290 47 ft 32 kts 56°
2026-05-06 10:03 53.63281 9.99602 48 ft 18 kts 100°
2026-05-06 10:03 53.63236 9.99749 49 ft 15 kts 152°
2026-05-06 10:03 53.63140 9.99832 48 ft 16 kts 153°
2026-05-06 10:03 53.63040 9.99919 48 ft 16 kts 153°
2026-05-06 10:04 53.62956 9.99996 48 ft 14 kts 139°
2026-05-06 10:04 53.62996 10.00106 48 ft 13 kts 32°
2026-05-06 10:04 53.63071 10.00188 45 ft 10 kts 33°
2026-05-06 10:04 53.63109 10.00274 48 ft 10 kts 88°
2026-05-06 10:05 53.63112 10.00367 48 ft 5 kts 87°
2026-05-06 10:05 53.63112 10.00383 47 ft 0 kts 87°